Pagina principale
METAR-TAF:

METAR-TAF

Aeroporti :

Udine, Italia

Aeroporto di Rivolto

latitudine: 45-59N, longitudine: 013-02E, altezza: 51 m

METAR: mancante

Ora: 13:10 (12:10 UTC)

Previsione

Il bollettino è stato emesso 28 ore e 10 minuti fa, alle 08:00 UTC
Previsione valida dal 18 alle 09 UTC al 18 alle 18 UTC
Vento 3 kt da direzioni variabili
Visibilità 10 km o più
nessuna nube inferiore a 1500 m e nessun cumulonembo

TAF: LIPI 180800Z 1809/1818 VRB03KT CAVOK

Osservazioni e previsioni meteorologiche di più di 4000 aeroporti (messaggi METAR e TAF).

Le stazioni disponibili sono rappresentate dai dischi gialli e rossi sulla carta.

Puntare il mouse per vedere il nome della stazione.

Clicca sopra per visualizzare le osservazioni e previsioni meteorologiche.

Per cambiare la mappa : fare clic sui pulsanti verdi con una croce nera per ingrandire, il pulsante verde con un trattino per diminuire, o sulla freccia verde per le mappe adiacenti.


METAR-TAF: